Abnaki, Vermont
Current Conditions -  °F | °C
As of 6:55 PM on Friday 19 Dec 2014 (Local Time) from KFSO Reporting Station
Clear Clear  
Wind Chill: 18°   Ceiling: Unl
Heat Index: 18°   Visibility: 10mi
Dew Point: 15°   Wind: 0mph
Humidity: 86%   Direction: NA
Pressure: 30.21"   Gusts: NA
Location:  44.841°N, 73.2779°W
Report Text: KFSO 192355Z AUTO 00000KT 10SM CLR M08/M10 A3021 RMK AO2 T10771097 11050 21085
Loading
Personal Weather Stations






























Interactive Weather Map New forecast layout! Learn more

10-Day Weather Forecast

Advertisements
Track Severe Weather on mobile